"Pseudo-MPEC" for P11JTVO

Created 2023 Sep 19 16:22:29 UT using Find_Orb

Click here for an explanation of pseudo-MPECs

 
 Astrometry: 
     P11JTVO* C2023 09 18JxP8_RfoIkfA?#h,Astrometry3WxMtl=wkc-^S5RW3)JL56B_'.F51
     P11JTVO  C2023 09 18Z!eH-yY`TRCQwa_[:N4q;qAh`10ymrZH](/6op!:GRredacted;!F51
     P11JTVO  C2023 09 18`4oh@*Mr3'\gN.GvEO,\kUR;1F=c!#Qpl-kPZ-HH4^5cl69keyM1F51
     P11JTVO  C2023 09 18/Z@ZC]\Gi,mvwC1^E3s]6)8)tW)B86I2plIclickRm89:i67u6gHF52
     P11JTVO  C2023 09 18si8V'AQ^$-[pC*(mv,DD9^gOvg$f.`wpX:!qr.Ri+\Ky2Wy0V8oCF51
     P11JTVO  C2023 09 18AEees%qyvOmwe,R.7hZjUkieG[4herekW3VWyO7$j*]x*#^71O%EF52
     P11JTVO KC2023 09 19@Z7/F8EZ]n9forYGCJKw;'x$fUb#A7(f1=WAcJ@w-explanationH21
     P11JTVO KC2023 09 19BE!UlD%u@DWsCNo/\6AyGbq\:%$_3R$8JS3H0,J-4B-^QjNLCuh`H21

Station data:
(F51) Pan-STARRS 1, Haleakala  (N20.707234 W156.255910)  US/Hawaii.
   Observers J. Bulger, T. Lowe, A. Schultz, M. Willman. Measurers K.
   Chambers, S. Chastel, T. de Boer, L. Denneau, J. Fairlamb, H. Flewelling,
   M. Huber, C.-C. Lin, E. Magnier, Y. Ramanjooloo, R. Wainscoat, R. Weryk.
   1.8-m Ritchey-Chrétien + CCD.
(F52) Pan-STARRS 2, Haleakala  (N20.707382 W156.255910)  US/Hawaii.
   Observers J. Bulger, T. Dukes, T. Lowe, A. Schultz, M. Willman. Measurers
   K. Chambers, S. Chastel, T. de Boer, L. Denneau, J. Fairlamb, H.
   Flewelling, M. Huber, C.-C. Lin, E. Magnier, Y. Ramanjooloo, R. Wainscoat,
   R. Weryk. 1.8-m Ritchey-Chrétien + CCD.
(H21) Astronomical Research Observatory, Westfield  (N39.483054 W87.968270)
   US/Illinois.  Observer R. Holmes. Measurers S. Foglia, L. Buzzi, T.
   Linder, R. Holmes. 0.76-m f/3.0 astrograph + CCD0.81-m f/4.0 astrograph +
   CCD0.61-m f/4.5 astrograph + CCD0.40-m f/5.32 astrograph + CCD.

Orbital elements:  P11JTVO
   Perihelion 2023 Oct 2.98206 +/- 4.2 TT = 23:34:09 (JD 2460220.48206)
Epoch 2023 Sep 19.0 TT = JDT 2460206.5   Earth MOID: 0.3139   Ma: 0.0718
M 353.93554707 +/- 1.7              (J2000 ecliptic)             AutoNEOCP
n   0.43373113 +/- 0.00543          Peri.  190.63763 +/- 3.0
a   1.72844534 +/- 0.0144           Node   173.59915 +/- 0.008
e   0.2388861 +/- 0.00599           Incl.   19.57201 +/- 0.18
P   2.27/829.99d           H 23.71  G  0.15   U  9.3
q 1.31554368 +/- 0.00347    Q 2.14134700 +/- 0.0279
From 8 observations 2023 Sept. 18-19 (20.2 hr); mean residual 0".18
Residuals in arcseconds: 
230918 F51  .04+  .10-    230918 F52  .09+  .20-    230919 H21  .10+  .31+    
230918 F51  .02+  .16+    230918 F51  .38-  .14+    230919 H21  .12-  .31-    
230918 F51  .07-  .07+    230918 F52  .20+  .00     

Ephemerides (geocentric):
Date (UTC) HH   RA             Dec           delta  r     elong  mag " sig PA
---- --------  ------------   ------------  ------ ------ -----  --- --------
2023 09 19 16  23 22 59.883   -05 27 56.35  .31627 1.3192 173.1 22.2 .573  14
2023 09 19 17  23 23 01.516   -05 30 30.32  .31629 1.3191 173.0 22.2 .614  13
2023 09 19 18  23 23 03.149   -05 33 04.25  .31631 1.3191 173.0 22.3 .657  13
2023 09 19 19  23 23 04.784   -05 35 38.15  .31633 1.3191 172.9 22.3 .702  12
2023 09 19 20  23 23 06.420   -05 38 12.02  .31635 1.3191 172.8 22.3 .749  11
2023 09 19 21  23 23 08.058   -05 40 45.85  .31637 1.3190 172.8 22.3 .797  10
2023 09 19 22  23 23 09.697   -05 43 19.65  .31639 1.3190 172.7 22.3 .847  10
2023 09 19 23  23 23 11.338   -05 45 53.41  .31642 1.3190 172.7 22.3 .899   9
2023 09 20 00  23 23 12.980   -05 48 27.14  .31644 1.3190 172.6 22.3 .953   9
2023 09 20 01  23 23 14.623   -05 51 00.83  .31646 1.3190 172.5 22.3 1.01   8
2023 09 20 02  23 23 16.268   -05 53 34.48  .31648 1.3189 172.5 22.3 1.07   8
2023 09 20 03  23 23 17.914   -05 56 08.10  .31651 1.3189 172.4 22.3 1.13   7
2023 09 20 04  23 23 19.561   -05 58 41.67  .31653 1.3189 172.4 22.3 1.19   7
2023 09 20 05  23 23 21.210   -06 01 15.21  .31655 1.3189 172.3 22.3 1.25   6
2023 09 20 06  23 23 22.860   -06 03 48.71  .31658 1.3188 172.2 22.3 1.31   6
2023 09 20 07  23 23 24.512   -06 06 22.17  .31660 1.3188 172.2 22.3 1.38   6
2023 09 20 08  23 23 26.166   -06 08 55.59  .31663 1.3188 172.1 22.3 1.45   5
2023 09 20 09  23 23 27.820   -06 11 28.96  .31665 1.3188 172.1 22.3 1.52   5
2023 09 20 10  23 23 29.476   -06 14 02.30  .31668 1.3188 172.0 22.3 1.59   5
2023 09 20 11  23 23 31.134   -06 16 35.59  .31670 1.3187 171.9 22.3 1.67   4
2023 09 20 12  23 23 32.793   -06 19 08.84  .31673 1.3187 171.9 22.3 1.74   4
2023 09 20 13  23 23 34.453   -06 21 42.05  .31676 1.3187 171.8 22.3 1.82   4
2023 09 20 14  23 23 36.115   -06 24 15.21  .31678 1.3187 171.8 22.3 1.90   3
2023 09 20 15  23 23 37.779   -06 26 48.33  .31681 1.3187 171.7 22.3 1.98   3
2023 09 20 16  23 23 39.444   -06 29 21.40  .31684 1.3186 171.6 22.3 2.06   3
2023 09 20 17  23 23 41.110   -06 31 54.43  .31687 1.3186 171.6 22.3 2.15   3
2023 09 20 18  23 23 42.778   -06 34 27.41  .31690 1.3186 171.5 22.3 2.23   3
2023 09 20 19  23 23 44.447   -06 37 00.35  .31693 1.3186 171.5 22.3 2.32   2
2023 09 20 20  23 23 46.118   -06 39 33.24  .31696 1.3186 171.4 22.3 2.41   2
2023 09 20 21  23 23 47.791   -06 42 06.08  .31699 1.3185 171.3 22.3 2.50   2
2023 09 20 22  23 23 49.464   -06 44 38.87  .31702 1.3185 171.3 22.3 2.60   2
2023 09 20 23  23 23 51.140   -06 47 11.61  .31705 1.3185 171.2 22.3 2.69   2
2023 09 21 00  23 23 52.817   -06 49 44.31  .31708 1.3185 171.2 22.3 2.79   2
2023 09 21 01  23 23 54.495   -06 52 16.95  .31711 1.3184 171.1 22.3 2.89   1
2023 09 21 02  23 23 56.175   -06 54 49.54  .31714 1.3184 171.0 22.3 2.99   1
2023 09 21 03  23 23 57.856   -06 57 22.09  .31718 1.3184 171.0 22.3 3.09   1
2023 09 21 04  23 23 59.539   -06 59 54.58  .31721 1.3184 170.9 22.3 3.19   1
2023 09 21 05  23 24 01.224   -07 02 27.01  .31724 1.3184 170.9 22.3 3.30   1
2023 09 21 06  23 24 02.910   -07 04 59.40  .31727 1.3183 170.8 22.3 3.41   1
2023 09 21 07  23 24 04.597   -07 07 31.73  .31731 1.3183 170.7 22.3 3.52   1
2023 09 21 08  23 24 06.286   -07 10 04.01  .31734 1.3183 170.7 22.3 3.63   0
2023 09 21 09  23 24 07.977   -07 12 36.23  .31738 1.3183 170.6 22.3 3.74   0
2023 09 21 10  23 24 09.669   -07 15 08.40  .31741 1.3183 170.5 22.3 3.86   0
2023 09 21 11  23 24 11.363   -07 17 40.52  .31745 1.3182 170.5 22.3 3.97   0
2023 09 21 12  23 24 13.058   -07 20 12.57  .31748 1.3182 170.4 22.3 4.09   0
2023 09 21 13  23 24 14.755   -07 22 44.58  .31752 1.3182 170.4 22.4 4.21   0
2023 09 21 14  23 24 16.454   -07 25 16.52  .31756 1.3182 170.3 22.4 4.33   0
2023 09 21 15  23 24 18.154   -07 27 48.41  .31759 1.3182 170.2 22.4 4.46   0